IZ2OSD Weather Reports


time (UTC)temp
C
wind
direction
speed
KPH
gust
KPH
rain 1hr
cm
rain 24hr
cm
rain mn
cm
humidity
%
barometer
mb
20260903031910 21 0.0 0.0 0.00 0.00 0.00 74 1017.9
20260903030949 21 0.0 0.0 0.00 0.00 0.00 74 1017.6
20260903025903 21 315 0.0 1.6 0.00 0.00 0.00 74 1017.8
20260903024919 21 0.0 0.0 0.00 0.00 0.00 75 1017.9
20260903023510 21 0.0 0.0 0.00 0.00 0.00 76 1018.1
20260903022506 21 0.0 0.0 0.00 0.00 0.00 76 1017.8
20260903021503 21 0.0 0.0 0.00 0.00 0.00 77 1018.1
20260903021001 21 0.0 0.0 0.00 0.00 0.00 77 1017.9
20260903020018 21 315 1.6 3.2 0.00 0.00 0.00 79 1018.1
20260903014954 21 0.0 0.0 0.00 0.00 0.00 79 1017.6
20260903013953 21 0.0 0.0 0.00 0.00 0.00 79 1017.7
20260903012947 21 337 1.6 3.2 0.00 0.00 0.00 79 1017.7
20260903011958 21 0.0 0.0 0.00 0.00 0.00 79 1017.8
20260903010934 21 0.0 0.0 0.00 0.00 0.00 78 1017.8
20260903005951 21 0.0 0.0 0.00 0.00 0.00 78 1017.8
20260903004927 21 0.0 0.0 0.00 0.00 0.00 77 1017.6
20260903003923 22 0.0 1.6 0.00 0.00 0.00 77 1017.6
20260903002454 22 0.0 0.0 0.00 0.00 0.00 77 1017.9
20260903001449 22 0.0 0.0 0.00 0.00 0.00 76 1017.9
20260903000440 22 0.0 0.0 0.00 0.00 0.00 77 1017.9
20260902235437 21 0.0 0.0 0.00 0.00 0.00 77 1017.7
20260902234453 21 0.0 0.0 0.00 0.00 0.00 78 1017.7
20260902233429 22 0.0 0.0 0.00 0.00 0.00 75 1017.8
20260902232425 22 0.0 0.0 0.00 0.00 0.00 73 1017.7
20260902231423 22 0.0 0.0 0.00 0.00 0.00 74 1017.7
20260902230438 22 0.0 1.6 0.00 0.00 0.00 74 1017.7
20260902225415 22 0.0 0.0 0.00 0.00 0.00 73 1017.5
20260902224414 23 315 0.0 1.6 0.00 0.00 0.00 72 1017.7
20260902223408 23 0.0 0.0 0.00 0.00 0.00 72 1017.6
20260902222425 23 0.0 1.6 0.00 0.00 0.00 73 1017.5
20260902221401 23 0.0 0.0 0.00 0.00 0.00 74 1017.4
20260902220352 23 0.0 0.0 0.00 0.00 0.00 73 1017.3
20260902215348 23 315 1.6 3.2 0.00 0.00 0.00 72 1017.4
20260902214345 24 0.0 1.6 0.00 0.00 0.00 71 1017.3
20260902213341 25 0.0 0.0 0.00 0.00 0.00 69 1017.2
20260902212339 25 0.0 0.0 0.00 0.00 0.00 68 1017.1
20260902211349 25 0.0 0.0 0.00 0.00 0.00 67 1017.2
20260902210324 25 0.0 0.0 0.00 0.00 0.00 67 1017.1
20260902205342 25 0.0 0.0 0.00 0.00 0.00 67 1017.2
20260902204317 25 0.0 1.6 0.00 0.00 0.00 66 1017.0
20260902203314 25 0.0 0.0 0.00 0.00 0.00 66 1017.1
20260902202331 25 337 0.0 1.6 0.00 0.00 0.00 67 1017.1
20260902201347 25 0.0 0.0 0.00 0.00 0.00 66 1017.0
20260902200303 26 0.0 0.0 0.00 0.00 0.00 66 1017.0
20260902195300 26 0.0 0.0 0.00 0.00 0.00 65 1017.0
20260902194310 26 0.0 0.0 0.00 0.00 0.00 64 1016.9
20260902193246 26 0.0 0.0 0.00 0.00 0.00 64 1016.9
20260902192236 26 0.0 0.0 0.00 0.00 0.00 64 1016.9
20260902191229 26 0.0 0.0 0.00 0.00 0.00 63 1016.9
20260902190226 27 0.0 0.0 0.00 0.00 0.00 61 1016.7
20260902185225 27 0.0 0.0 0.00 0.00 0.00 60 1016.4
20260902184216 27 0.0 0.0 0.00 0.00 0.00 59 1016.1
20260902183213 27 0.0 0.0 0.00 0.00 0.00 58 1016.3
20260902182209 28 0.0 0.0 0.00 0.00 0.00 57 1016.2
20260902181205 28 0.0 0.0 0.00 0.00 0.00 55 1016.2
20260902180202 28 0.0 0.0 0.00 0.00 0.00 54 1016.3
20260902175159 29 0.0 0.0 0.00 0.00 0.00 53 1016.1
20260902174148 29 337 0.0 1.6 0.00 0.00 0.00 52 1015.9
20260902173139 29 0.0 0.0 0.00 0.00 0.00 52 1015.8
20260902172136 30 337 0.0 1.6 0.00 0.00 0.00 50 1016.0
20260902171125 30 0.0 1.6 0.00 0.00 0.00 48 1015.9
20260902170121 30 0.0 1.6 0.00 0.00 0.00 49 1016.0
20260902165117 30 0.0 1.6 0.00 0.00 0.00 49 1015.9
20260902164113 30 0.0 0.0 0.00 0.00 0.00 48 1016.0
20260902163111 30 337 0.0 3.2 0.00 0.00 0.00 47 1015.9
20260902162107 30 315 0.0 3.2 0.00 0.00 0.00 46 1015.9
20260902161103 30 0.0 0.0 0.00 0.00 0.00 48 1016.1
20260902153804 30 0.0 0.0 0.00 0.00 0.00 49 1016.4
20260902152758 31 315 1.6 3.2 0.00 0.00 0.00 49 1016.3
20260902151755 30 0.0 0.0 0.00 0.00 0.00 47 1016.5
20260902150811 30 0.0 1.6 0.00 0.00 0.00 48 1016.4
20260902145748 30 0.0 0.0 0.00 0.00 0.00 48 1016.5
20260902144740 30 315 0.0 3.2 0.00 0.00 0.00 47 1016.6
20260902143728 31 315 0.0 1.6 0.00 0.00 0.00 49 1016.8
20260902142724 31 337 0.0 3.2 0.00 0.00 0.00 44 1016.9
20260902141721 31 0.0 0.0 0.00 0.00 0.00 45 1016.8
20260902140717 31 0.0 0.0 0.00 0.00 0.00 47 1017.0
20260902135714 31 315 1.6 3.2 0.00 0.00 0.00 47 1016.9
20260902134710 31 315 1.6 3.2 0.00 0.00 0.00 49 1016.7
20260902133707 31 0.0 0.0 0.00 0.00 0.00 49 1017.0
20260902132703 31 315 1.6 3.2 0.00 0.00 0.00 49 1017.0
20260902131659 31 315 0.0 3.2 0.00 0.00 0.00 50 1017.3
20260902123924 30 90 1.6 3.2 0.00 0.00 0.00 54 1017.5
20260902122920 29 315 4.8 4.8 0.00 0.00 0.00 55 1017.6
20260902121916 30 315 0.0 3.2 0.00 0.00 0.00 53 1017.9
20260902120913 30 135 3.2 3.2 0.00 0.00 0.00 54 1017.8
20260902115910 30 292 3.2 4.8 0.00 0.00 0.00 53 1017.9
20260902114905 30 292 1.6 4.8 0.00 0.00 0.00 55 1018.3
20260902113902 31 0.0 1.6 0.00 0.00 0.00 54 1018.3
20260902112859 29 112 3.2 4.8 0.00 0.00 0.00 56 1018.4
20260902111414 30 315 0.0 3.2 0.00 0.00 0.00 54 1018.6
20260902110412 30 315 0.0 1.6 0.00 0.00 0.00 55 1018.5
20260902104500 30 225 0.0 1.6 0.00 0.00 0.00 56 1018.8
20260902103436 30 247 0.0 1.6 0.00 0.00 0.00 54 1018.8
20260902102426 27 90 1.6 4.8 0.00 0.00 0.00 59 1019.0
20260902101423 27 22 0.0 3.2 0.00 0.00 0.00 61 1019.0
20260902100419 27 315 1.6 3.2 0.00 0.00 0.00 59 1019.1
20260902095416 27 315 4.8 9.7 0.00 0.00 0.00 60 1019.0
20260902094412 26 337 4.8 9.7 0.00 0.00 0.00 61 1019.0
20260902092928 28 202 0.0 1.6 0.00 0.00 0.00 57 1019.2
20260902091925 27 11 3.2 6.4 0.00 0.00 0.00 61 1019.1
20260902090955 27 315 4.8 6.4 0.00 0.00 0.00 61 1019.4
20260902085912 27 0.0 1.6 0.00 0.00 0.00 62 1019.2
20260902084907 26 0 3.2 9.7 0.00 0.00 0.00 64 1019.2
20260902083902 25 315 3.2 3.2 0.00 0.00 0.00 66 1019.1
20260902082859 26 112 4.8 14.5 0.00 0.00 0.00 66 1019.1
20260902081850 26 315 6.4 12.9 0.00 0.00 0.00 65 1019.0
20260902080910 26 315 3.2 6.4 0.00 0.00 0.00 64 1019.1
20260902075841 26 135 1.6 4.8 0.00 0.00 0.00 62 1019.0
20260902074839 25 22 0.0 3.2 0.00 0.00 0.00 67 1019.0
20260902073835 25 315 1.6 4.8 0.00 0.00 0.00 65 1018.8
20260902072827 24 315 4.8 9.7 0.00 0.00 0.00 68 1018.6
20260902071823 25 337 4.8 9.7 0.00 0.00 0.00 70 1018.7
20260902070819 24 90 0.0 3.2 0.00 0.00 0.00 72 1018.6
20260902065815 23 292 1.6 4.8 0.00 0.00 0.00 73 1018.6
20260902064813 23 315 4.8 9.7 0.00 0.00 0.00 73 1018.7
20260902063809 23 315 3.2 4.8 0.00 0.00 0.00 75 1018.5
20260902062807 23 315 3.2 4.8 0.00 0.00 0.00 75 1018.5
20260902061802 22 315 3.2 4.8 0.00 0.00 0.00 77 1018.7
20260902060752 22 315 3.2 4.8 0.00 0.00 0.00 79 1018.4
20260902055749 21 315 3.2 4.8 0.00 0.00 0.00 81 1018.5
20260902054741 21 315 4.8 4.8 0.00 0.00 0.00 82 1018.3
20260902053740 21 0.0 0.0 0.00 0.00 0.00 82 1018.4
20260902052737 21 0.0 0.0 0.00 0.00 0.00 83 1018.3
20260902051735 21 0.0 0.0 0.00 0.00 0.00 83 1018.1
20260902050727 21 315 1.6 3.2 0.00 0.00 0.00 83 1017.8
20260902045722 21 0.0 0.0 0.00 0.00 0.00 83 1018.1
20260902044718 21 0.0 0.0 0.00 0.00 0.00 82 1018.2
20260902043714 21 0.0 0.0 0.00 0.00 0.00 82 1018.1
20260902042712 21 0.0 0.0 0.00 0.00 0.00 82 1017.6
20260902041708 21 0.0 0.0 0.00 0.00 0.00 81 1017.8
20260902040705 21 0.0 1.6 0.00 0.00 0.00 82 1017.7
20260902035700 21 0.0 0.0 0.00 0.00 0.00 81 1017.8
20260902034326 21 315 3.2 4.8 0.00 0.00 0.00 80 1017.9
20260902033321 21 0.0 0.0 0.00 0.00 0.00 81 1017.8